FW3102 Weather Reports


Display with metric or nautical units.
time (UTC)temp
F
wind
direction
speed
MPH
gust
MPH
rain 1hr
in
rain 24hr
in
rain mn
in
humidity
%
barometer
mb
20260505234555 53 35 1.0 4.0 0.00 0.00 0.00 34 1017.7
20260505233051 52 84 1.0 3.0 0.00 0.00 0.00 34 1017.7
20260505231605 53 27 1.0 5.0 0.00 0.00 0.00 35 1017.9
20260505230048 53 92 1.0 5.0 0.00 0.00 0.00 36 1018.3
20260505224543 52 79 1.0 3.0 0.00 0.00 0.00 35 1018.5
20260505223042 52 58 0.0 6.0 0.00 0.00 0.00 37 1018.5
20260505221538 52 52 1.0 8.0 0.00 0.00 0.00 36 1018.6
20260505220036 52 325 2.0 5.0 0.00 0.00 0.00 36 1018.9
20260505214548 52 84 1.0 5.0 0.00 0.00 0.00 37 1019.0
20260505213037 52 34 0.0 4.0 0.00 0.00 0.00 37 1019.1
20260505211528 50 37 1.0 7.0 0.00 0.00 0.00 39 1019.4
20260505210028 51 355 2.0 6.0 0.00 0.00 0.00 38 1019.6
20260505204526 51 44 2.0 8.0 0.00 0.00 0.00 39 1019.6
20260505203029 51 305 0.0 4.0 0.00 0.00 0.00 40 1019.7
20260505201530 50 135 0.0 6.0 0.00 0.00 0.00 41 1020.0
20260505200021 50 300 1.0 6.0 0.00 0.00 0.00 41 1020.2
20260505194517 50 21 2.0 5.0 0.00 0.00 0.00 41 1020.3
20260505193015 48 38 2.0 5.0 0.00 0.00 0.00 42 1020.4
20260505191517 49 293 1.0 7.0 0.00 0.00 0.00 42 1020.6
20260505190013 48 349 3.0 8.0 0.00 0.00 0.00 44 1020.6
20260505184510 48 85 3.0 7.0 0.00 0.00 0.00 44 1020.7
20260505183012 47 281 2.0 10.0 0.00 0.00 0.00 45 1021.0
20260505181504 47 120 1.0 4.0 0.00 0.00 0.00 46 1020.9
20260505180002 45 340 1.0 5.0 0.00 0.00 0.00 48 1020.8
20260505174605 45 36 1.0 6.0 0.00 0.00 0.00 48 1021.0
20260505173100 45 53 2.0 5.0 0.00 0.00 0.00 48 1021.0
20260505171558 45 31 0.0 5.0 0.00 0.00 0.00 49 1021.2
20260505170110 43 58 0.0 5.0 0.00 0.00 0.00 49 1021.3
20260505164555 44 75 1.0 6.0 0.00 0.00 0.00 49 1021.2
20260505163053 43 27 1.0 5.0 0.00 0.00 0.00 50 1021.4
20260505161612 43 81 0.0 3.0 0.00 0.00 0.00 51 1021.4
20260505153056 41 319 0.0 3.0 0.00 0.00 0.00 56 1021.3
20260505151557 40 37 0.0 2.0 0.00 0.00 0.00 58 1021.4
20260505124528 27 103 0.0 0.0 0.00 0.00 0.00 83 1021.2
20260505123027 27 103 0.0 0.0 0.00 0.00 0.00 82 1021.0
20260505121526 28 103 0.0 0.0 0.00 0.00 0.00 82 1020.9
20260505120024 28 41 0.0 1.0 0.00 0.00 0.00 82 1020.9
20260505114523 28 37 0.0 1.0 0.00 0.00 0.00 81 1020.8
20260505113023 28 39 0.0 1.0 0.00 0.00 0.00 82 1020.7
20260505111521 28 38 0.0 0.0 0.00 0.00 0.00 82 1020.7
20260505101518 27 38 0.0 0.0 0.00 0.00 0.00 81 1020.4
20260505100014 28 38 0.0 0.0 0.00 0.00 0.00 81 1020.2
20260505094509 28 38 0.0 0.0 0.00 0.00 0.00 80 1020.2
20260505093015 28 38 0.0 0.0 0.00 0.00 0.00 80 1020.1
20260505091506 29 38 0.0 0.0 0.00 0.00 0.00 78 1020.0
20260505090004 29 38 0.0 0.0 0.00 0.00 0.00 78 1020.0
20260505084500 29 38 0.0 0.0 0.00 0.00 0.00 75 1019.8
20260505083102 30 38 0.0 0.0 0.00 0.00 0.00 74 1019.8
20260505081558 31 38 0.0 0.0 0.00 0.00 0.00 72 1019.5
20260505080054 32 38 0.0 0.0 0.00 0.00 0.00 71 1019.4
20260505074549 34 38 0.0 0.0 0.00 0.00 0.00 69 1019.4
20260505073044 35 38 0.0 1.0 0.00 0.00 0.00 68 1019.3
20260505071542 35 65 0.0 1.0 0.00 0.00 0.00 67 1019.1
20260505070044 36 70 0.0 2.0 0.00 0.00 0.00 65 1019.0
20260505064537 37 74 0.0 3.0 0.00 0.00 0.00 65 1019.1
20260505063039 37 46 0.0 4.0 0.00 0.00 0.00 63 1019.0
20260505061534 38 29 2.0 6.0 0.00 0.00 0.00 62 1018.9
20260505060032 39 29 1.0 3.0 0.00 0.00 0.00 60 1018.9
20260505054536 39 331 2.0 6.0 0.00 0.00 0.00 58 1018.8
20260505053023 40 38 1.0 6.0 0.00 0.00 0.00 56 1018.8
20260505051523 40 26 1.0 5.0 0.00 0.00 0.00 54 1018.4
20260505041517 43 339 2.0 6.0 0.00 0.00 0.00 53 1017.9
20260505040017 43 37 1.0 5.0 0.00 0.00 0.00 53 1017.6
20260505034514 44 62 1.0 3.0 0.00 0.00 0.00 52 1017.4
20260505033018 45 16 3.0 7.0 0.00 0.00 0.00 50 1017.0
20260505031511 46 57 2.0 6.0 0.00 0.00 0.00 46 1016.8
20260505030010 47 24 2.0 6.0 0.00 0.00 0.00 43 1016.4
20260505024508 48 302 3.0 7.0 0.00 0.00 0.00 42 1016.3
20260505023010 48 30 2.0 7.0 0.00 0.00 0.00 41 1016.3
20260505021507 49 16 3.0 7.0 0.00 0.00 0.00 41 1016.1
20260505020006 50 330 4.0 10.0 0.00 0.00 0.00 38 1015.9
20260505014509 51 329 2.0 11.0 0.00 0.00 0.00 38 1015.8
20260505013004 51 56 4.0 13.0 0.00 0.00 0.00 38 1015.8
20260505011504 52 359 4.0 15.0 0.00 0.00 0.00 37 1015.5
20260505010003 53 314 4.0 11.0 0.00 0.00 0.00 36 1015.5
20260505004511 53 70 4.0 12.0 0.00 0.00 0.00 36 1015.6
20260505003000 54 80 4.0 8.0 0.00 0.00 0.00 36 1015.4
20260505001600 53 302 4.0 9.0 0.00 0.00 0.00 34 1015.2
20260505000104 55 323 3.0 10.0 0.00 0.00 0.00 33 1015.1